Torna al catalogo

FENGYUN 1C DEB

AttivoSSO
NORAD 29845·DEBRIS·🇨🇳 China

Lanciato May 10, 1999 da Taiyuan Satellite Launch Center

Loading…

Prossimi Passaggi (prossime 24 ore)

TLE

AggiornatoSource: Space-Track

Epoca: Sep 14, 2026, 11:21 UTC

1 29845U 99025EP  26257.47338868  .00000521  00000-0  22434-3 0  9998
2 29845  98.5313 255.8080 0078002  44.7958 107.6677 14.26997434 20400

Traccia FENGYUN 1C DEB in tempo reale con AllMySat

Download on the App Store